Location: Grambois
(43.7619°N, 5.5873°E)
Time: 09:04:21
(UTC+00:00)

BREEZE-M DEB (TANK) - Pass Details

Date: 03 October 2020
Orbit: 333 x 12040 km, 49.7° (Epoch: 22 October)

Event Time Altitude Azimuth Distance (km) Brightness Sun altitude
Rises 01:45:56 0° 171° (S) 13,854 8.9 -39.8°
Reaches altitude 10° 01:59:24 10° 164° (SSE) 14,261 9.0 -38.0°
Maximum altitude 03:21:01 45° 111° (ESE) 11,761 9.0 -25.2°
Drops below altitude 10° 04:02:46 10° 57° (ENE) 8,806 9.3 -17.9°
Sets 04:07:44 0° 52° (NE) 8,831 9.4 -17.0°
